Location: Ferintosh
(52.7647°N, 112.9692°W)
Time: 14:14:56
(UTC+00:00)

Transit 2A - Pass Details

Date: 26 May 2024
Orbit: 592 x 959 km, 66.7° (Epoch: 23 June)

Event Time Altitude Azimuth Distance (km) Brightness Sun altitude
Rises 11:02:55 0° 314° (NW) 3,267 9.2 -2.7°
Reaches altitude 10° 11:05:38 10° 327° (NNW) 2,401 8.7 -2.4°
Maximum altitude 11:10:17 26° 23° (NNE) 1,628 8.7 -1.8°
Drops below altitude 10° 11:15:16 10° 79° (E) 2,589 9.9 -1.3°
Sets 11:18:19 0° 92° (E) 3,574 10.3 -0.9°
